Regional Weather Roundup
Issued by NWS

Home | Current Version | Previous Version | Text Only | Print | Product List | Glossary On
Versions: 1 2 3 4 5 6 7 8 9 10 11 12 13 14 15 16 17 18 19 20 21 22 23 24 25 26 27 28 29 30 31 32 33 34 35 36 37 38 39 40 41 42 43 44 45 46 47 48 49 50
000
ASUS43 KDTX 250501
RWRMI
MICHIGAN HOURLY REGIONAL WEATHER ROUNDUP
NATIONAL WEATHER SERVICE DETROIT/PONTIAC MI
100 AM EDT TUE JUL 25 2017

NOTE: "FAIR" INDICATES FEW OR NO CLOUDS BELOW 12,000 FEET WITH NO
SIGNIFICANT WEATHER AND/OR OBSTRUCTION TO VISIBILITY.

MIZ047>049-052>055-059>063-066>070-074>076-081>083-250600-
SOUTHEAST LOWER MICHIGAN

CITY           SKY/WX    TMP DP  RH WIND       PRES   REMARKS
ADRIAN         CLEAR     56  54  93 NE3       30.14R
ALMA           CLEAR     54  52  92 CALM      30.15R
ANN ARBOR      CLEAR     50  49  96 CALM      30.13R
BAD AXE        PTCLDY    51  51  99 CALM      30.14R
CARO           CLEAR     51  50  96 CALM      30.13S FOG
DETROIT CITY   CLEAR     62  54  74 N6        30.12R
DETROIT        PTCLDY    62  53  72 N6        30.13R
FLINT          CLEAR     57  52  83 CALM      30.14R
GROSSE ILE     CLEAR     63  53  68 N6        30.11R
HILLSDALE      CLEAR     54  52  94 E3        30.14R
HOWELL         CLEAR     57  54  88 CALM      30.15R

CITY           SKY/WX    TMP DP  RH WIND       PRES   REMARKS
JACKSON        CLEAR     59  54  83 NE5       30.14R
LAMBERTVILLE   CLEAR     60  52  75 CALM      30.13R
LANSING        CLEAR     61  53  75 CALM      30.15R
LAPEER         FAIR      55  54  97 CALM      30.14R
MASON          CLEAR     56  56  97 CALM      30.14S
MONROE         CLEAR     57  54  89 CALM      30.12R
MT. CLEMENS    CLEAR     59  55  85 NW5       30.11R
PONTIAC        CLEAR     61  53  75 N3        30.12R
PORT HOPE        N/A     66  54  65 CALM      30.12R
PORT HURON     CLEAR     61  55  82 NW5       30.11S
TRI CITIES     CLEAR     63  54  72 CALM      30.15R
MIDLAND        FAIR      55  55  99 CALM      30.14R
TROY           CLEAR     62  52  69 N5        30.15R
SAGINAW HB     CLEAR     55  52  88 CALM      30.13S
$$
MIZ043>046-050>051-056>058-064>065-071>073-077>080-250600-
SOUTHWEST LOWER MICHIGAN

CITY           SKY/WX    TMP DP  RH WIND       PRES   REMARKS
BATTLE CREEK   CLEAR     59  57  93 CALM      30.14R
BENTON HARBOR  CLEAR     60  57  89 CALM      30.12R
BIG RAPIDS     CLEAR     60  55  83 CALM      30.14R
COLDWATER      CLEAR     58  58 100 CALM      30.14R
FREMONT        FAIR      61  55  80 NE5       30.12R
HOLLAND        CLEAR     59  57  93 CALM      30.13R
GRAND RAPIDS   CLEAR     60  58  92 CALM      30.13R
IONIA          FAIR      59  55  87 SE6       30.13R
KALAMAZOO      CLEAR     60  55  83 CALM      30.14R
LUDINGTON      MOCLDY    54  52  93 CALM      30.12S
MARSHALL       CLEAR     57  56  98 CALM      30.14R
MOUNT PLEASANT CLEAR     59  55  86 CALM      30.14S
MUSKEGON       CLEAR     64  55  72 N6        30.12R
SOUTH HAVEN    CLEAR     60  59  97 CALM      30.12S
$$
MIZ016>042-250600-
NORTHERN LOWER MICHIGAN

CITY           SKY/WX    TMP DP  RH WIND       PRES   REMARKS
ALPENA         CLEAR     56  55  97 CALM      30.15R
BELLAIRE       CLEAR     50  48  93 CALM      30.15R
CADILLAC       CLEAR     54  49  84 CALM      30.15R
CHARLEVOIX     CLEAR     57  57  99 CALM      30.17R
FRANKFORT      CLEAR     52  51  97 CALM      30.14R
GAYLORD        CLEAR     53  48  83 CALM      30.16R
GRAYLING       CLEAR     49  47  93 CALM      30.16S
HARBOR SPRINGS CLEAR     55  51  86 NE3       30.15R
HOUGHTON LAKE  CLEAR     52  51  97 E3        30.16S
MANISTEE       CLEAR     53  51  93 E5        30.13R
OSCODA         CLEAR     55  53  92 W7        30.14R
PELLSTON       CLEAR     50  49  96 CALM      30.15R
ROGERS CITY    CLEAR     57  54  87 W3        30.15R
TRAVERSE CITY  CLEAR     56  51  84 SW3       30.13R
$$
MIZ007>008-015-250600-
EASTERN UPPER MICHIGAN

CITY           SKY/WX    TMP DP  RH WIND       PRES   REMARKS
KINROSS        CLEAR     54  51  90 W5        30.15R
MACKINAC ISLAN CLEAR     56  56 100 N5        30.15R
NEWBERRY       CLEAR     49  48  97 CALM      30.14S
S. S. MARIE    CLEAR     56  50  80 NW6       30.13S
MUNISING         N/A     58  52  80 S6        30.12R
$$
MIZ004>006-011>014-085-250600-
CENTRAL UPPER MICHIGAN

CITY           SKY/WX    TMP DP  RH WIND       PRES   REMARKS
MANISTIQUE     CLEAR     52  49  89 CALM      30.14R
ESCANABA       CLEAR     54  54 100 W5        30.13R
MENOMINEE      CLEAR     58  56  93 CALM      30.14R
SAWYER-GWINN   CLEAR     58  52  80 S5        30.14S
$$
MIZ001>003-009>011-084-250600-
WESTERN UPPER MICHIGAN

CITY           SKY/WX    TMP DP  RH WIND       PRES   REMARKS
IRON MOUNTAIN  CLEAR     60  53  77 SE3       30.12R
HOUGHTON       CLEAR     61  51  70 E7        30.09S
COPPER HARBOR    N/A     61  50  67 SW8       30.08S
IRONWOOD       CLOUDY    60  55  83 CALM      30.09R
$$

ABBREVIATIONS USED IN REMARKS
   TC - TEMPERATURE IN CELSIUS
  WCI - WIND CHILL INDEX
   HX - HEAT INDEX
  VSB - VISIBILITY




USA.gov is the U.S. government's official web portal to all federal, state and local government web resources and services.